Regional Weather Roundup
Issued by NWS

Home | Current Version | Previous Version | Graphics & Text | Print | Product List | Glossary On
Versions: 1 2 3 4 5 6 7 8 9 10 11 12 13 14 15 16 17 18 19 20 21 22 23 24 25 26 27 28 29 30 31 32 33 34 35 36 37 38 39 40 41 42 43 44 45 46 47 48 49 50
000
ASUS44 KMEG 240000
RWRTN
TENNESSEE HOURLY STATE WEATHER ROUNDUP
NATIONAL WEATHER SERVICE MEMPHIS TN
700 PM CDT FRI JUN 23 2017

TNZ002-004-019-021-049-052-054-088>092-240100-
WEST TENNESSEE

CITY           SKY/WX    TMP DP  RH WIND       PRES   REMARKS
MEMPHIS INTL   LGT RAIN  74  72  93 N10       29.88R FOG
NWS MEMPHIS      N/A     72 N/A N/A MISG        N/A
JACKSON        PTSUNNY   82  77  84 SW8       29.82R HX  90
$$

TNZ008-025-027-028-033-062-065-066-240100-
NORTH MIDDLE TENNESSEE

CITY           SKY/WX    TMP DP  RH WIND       PRES   REMARKS
NASHVILLE      PTSUNNY   82  74  76 VRB5      29.80R
CLARKSVILLE    MOSUNNY   80  73  79 W7        29.77R
SMYRNA         CLOUDY    80  74  81 W10       29.82R
CROSSVILLE     LGT RAIN  72  70  93 W12G31    29.86R FOG
$$

TNZ061-075-076-078-094-096-097-240100-
SOUTH MIDDLE TENNESSEE

CITY           SKY/WX    TMP DP  RH WIND       PRES   REMARKS
TULLAHOMA      CLOUDY    73  72  94 SW8       29.87R
WINCHESTER     CLOUDY    73  73 100 W7          N/A
MCMINNVILLE    MOSUNNY   75  75 100 SW8       29.85R
$$

TNZ017-018-042-046-047-240100-
NORTHEAST TENNESSEE

CITY           SKY/WX    TMP DP  RH WIND       PRES   REMARKS
TRI CITIES     CLOUDY    85  60  42 S10       29.77F
$$

TNZ012-013-036-069-073-074-240100-
CENTRAL EAST TENNESSEE

CITY           SKY/WX    TMP DP  RH WIND       PRES   REMARKS
KNOXVILLE      LGT RAIN  77  69  76 SW28G35   29.78R
OAK RIDGE      RAIN      74  72  93 VRB6      29.81R FOG
GATLINBURG     MOCLDY    84  63  48 SW21      29.75R
$$

TNZ083-085-099-240100-
SOUTHEAST TENNESSEE

CITY           SKY/WX    TMP DP  RH WIND       PRES   REMARKS
CHATTANOOGA    CLOUDY    77  73  87 S10       29.86R
$$

SKY/WX REPORTED AS FAIR MEANS FEW OR NO CLOUDS BELOW
12 THOUSAND FEET.





USA.gov is the U.S. government's official web portal to all federal, state and local government web resources and services.